Location: Zagreb
(45.8000°N, 16.0000°E)
Time: 00:53:03
(UTC+01:00)

Transit 2A Rocket - Pass Details

Date: 02 October 2020
Orbit: 586 x 916 km, 66.7° (Epoch: 28 October)

Event Time Altitude Azimuth Distance (km) Brightness Sun altitude
Rises 02:58:53 0° 316° (NW) 3,370 - -38.8°
Reaches altitude 10° 03:01:56 10° 302° (WNW) 2,372 - -38.5°
Maximum altitude 03:05:55 21° 254° (WSW) 1,640 - -38.0°
Drops below altitude 10° 03:09:40 10° 206° (SSW) 2,193 - -37.5°
Sets 03:12:22 0° 190° (S) 3,045 - -37.1°
